GW5385 Weather Reports


Display with metric or nautical units.
time (UTC)temp
F
wind
direction
speed
MPH
gust
MPH
rain 1hr
in
rain 24hr
in
rain mn
in
humidity
%
barometer
mb
20260902070100 50 292 0.0 1.0 0.00 0.00 0.00 69 1010.6
20260902064609 50 233 0.0 1.0 0.00 0.00 0.00 68 1010.6
20260902063050 51 230 0.0 0.0 0.00 0.00 0.00 66 1010.6
20260902061555 52 230 0.0 0.0 0.00 0.00 0.00 65 1010.7
20260902060046 53 230 0.0 0.0 0.00 0.00 0.00 63 1010.8
20260902054546 53 229 0.0 0.0 0.00 0.00 0.00 63 1010.8
20260902053048 54 230 0.0 0.0 0.00 0.00 0.00 63 1011.0
20260902051546 50 229 0.0 0.0 0.00 0.00 0.00 67 1010.9
20260902050041 51 230 0.0 0.0 0.00 0.00 0.00 65 1010.9
20260902044540 52 230 0.0 0.0 0.00 0.00 0.00 63 1011.0
20260902043040 53 230 0.0 0.0 0.00 0.00 0.00 62 1011.0
20260902041538 54 230 0.0 1.0 0.00 0.00 0.00 60 1011.0
20260902040038 54 229 0.0 0.0 0.00 0.00 0.00 58 1011.0
20260902034549 57 230 0.0 0.0 0.00 0.00 0.00 54 1011.0
20260902033053 60 230 0.0 1.0 0.00 0.00 0.00 49 1011.2
20260902031534 58 229 0.0 0.0 0.00 0.00 0.00 51 1011.1
20260902030033 57 230 0.0 1.0 0.00 0.00 0.00 52 1011.1
20260902024540 59 173 0.0 0.0 0.00 0.00 0.00 49 1010.9
20260902023033 63 173 0.0 0.0 0.00 0.00 0.00 45 1011.0
20260902021510 68 173 0.0 0.0 0.00 0.00 0.00 40 1010.9
20260902020000 71 173 0.0 0.0 0.00 0.00 0.00 33 1010.9
20260902014559 74 173 0.0 1.0 0.00 0.00 0.00 32 1010.9
20260902013104 77 163 0.0 2.0 0.00 0.00 0.00 29 1011.0
20260902011559 79 161 2.0 6.0 0.00 0.00 0.00 27 1010.9
20260902010059 80 151 1.0 6.0 0.00 0.00 0.00 27 1010.9
20260902004553 80 117 4.0 9.0 0.00 0.00 0.00 26 1011.0
20260902003052 81 129 5.0 8.0 0.00 0.00 0.00 25 1011.0
20260902001551 82 111 4.0 12.0 0.00 0.00 0.00 25 1011.0
20260902000049 83 108 4.0 8.0 0.00 0.00 0.00 25 1011.1
20260901234518 83 180 3.0 7.0 0.00 0.00 0.00 26 1011.2
20260901233027 83 157 3.0 8.0 0.00 0.00 0.00 26 1011.3
20260901231545 84 232 5.0 10.0 0.00 0.00 0.00 24 1011.4
20260901230044 83 243 4.0 9.0 0.00 0.00 0.00 25 1011.6
20260901224544 83 167 3.0 11.0 0.00 0.00 0.00 25 1011.8
20260901223036 84 207 4.0 10.0 0.00 0.00 0.00 24 1012.0
20260901221534 83 251 3.0 8.0 0.00 0.00 0.00 24 1012.0
20260901220032 83 141 5.0 9.0 0.00 0.00 0.00 25 1012.3
20260901214529 83 134 5.0 10.0 0.00 0.00 0.00 25 1012.4
20260901213028 82 137 4.0 9.0 0.00 0.00 0.00 26 1012.5
20260901211527 82 155 3.0 10.0 0.00 0.00 0.00 26 1012.8
20260901210021 82 206 6.0 9.0 0.00 0.00 0.00 26 1013.0
20260901204518 82 182 5.0 9.0 0.00 0.00 0.00 27 1013.1
20260901203015 81 159 5.0 12.0 0.00 0.00 0.00 26 1013.2
20260901201512 81 195 5.0 11.0 0.00 0.00 0.00 27 1013.4
20260901200012 80 180 4.0 10.0 0.00 0.00 0.00 28 1013.6
20260901194512 79 154 6.0 11.0 0.00 0.00 0.00 28 1013.7
20260901193003 79 161 4.0 14.0 0.00 0.00 0.00 29 1013.9
20260901191606 79 134 4.0 10.0 0.00 0.00 0.00 30 1014.0
20260901190112 78 186 5.0 11.0 0.00 0.00 0.00 30 1014.2
20260901184554 78 161 7.0 15.0 0.00 0.00 0.00 30 1014.4
20260901183051 77 146 6.0 11.0 0.00 0.00 0.00 31 1014.6
20260901181550 76 200 5.0 13.0 0.00 0.00 0.00 34 1014.7
20260901180042 75 173 6.0 13.0 0.00 0.00 0.00 34 1014.7
20260901174540 74 201 5.0 12.0 0.00 0.00 0.00 36 1015.0
20260901173036 73 129 4.0 10.0 0.00 0.00 0.00 37 1015.1
20260901171538 72 155 5.0 11.0 0.00 0.00 0.00 38 1015.3
20260901170027 71 124 6.0 12.0 0.00 0.00 0.00 39 1015.3
20260901164625 69 144 5.0 9.0 0.00 0.00 0.00 41 1015.5
20260901163054 69 127 4.0 11.0 0.00 0.00 0.00 41 1015.5
20260901161550 68 141 3.0 10.0 0.00 0.00 0.00 43 1015.6
20260901160046 67 154 7.0 13.0 0.00 0.00 0.00 44 1015.7
20260901154543 66 161 4.0 9.0 0.00 0.00 0.00 45 1015.6
20260901153040 65 179 2.0 8.0 0.00 0.00 0.00 47 1015.9
20260901151542 65 141 2.0 6.0 0.00 0.00 0.00 49 1016.1
20260901150035 64 184 2.0 5.0 0.00 0.00 0.00 50 1016.2
20260901144530 62 70 1.0 4.0 0.00 0.00 0.00 54 1016.0
20260901143028 59 49 0.0 2.0 0.00 0.00 0.00 63 1016.1
20260901141521 55 35 0.0 3.0 0.00 0.00 0.00 71 1016.0
20260901140054 54 39 1.0 3.0 0.00 0.00 0.00 73 1015.8
20260901134543 50 343 0.0 0.0 0.00 0.00 0.00 78 1015.6
20260901133036 48 285 0.0 0.0 0.00 0.00 0.00 79 1015.6
20260901131536 46 285 0.0 0.0 0.00 0.00 0.00 79 1015.7
20260901130033 45 285 0.0 0.0 0.00 0.00 0.00 80 1015.7
20260901124534 45 279 0.0 0.0 0.00 0.00 0.00 81 1015.8
20260901123004 44 287 0.0 0.0 0.00 0.00 0.00 81 1015.8
20260901121501 44 287 0.0 0.0 0.00 0.00 0.00 81 1015.8
20260901120058 44 287 0.0 0.0 0.00 0.00 0.00 81 1015.7
20260901114555 44 287 0.0 0.0 0.00 0.00 0.00 80 1015.8
20260901113101 45 287 0.0 0.0 0.00 0.00 0.00 80 1016.0
20260901111552 45 283 0.0 0.0 0.00 0.00 0.00 79 1016.0
20260901110049 45 286 0.0 0.0 0.00 0.00 0.00 80 1015.9
20260901104557 45 286 0.0 0.0 0.00 0.00 0.00 80 1016.0
20260901103046 44 286 0.0 0.0 0.00 0.00 0.00 81 1016.2
20260901101547 45 286 0.0 0.0 0.00 0.00 0.00 80 1016.2
20260901100058 44 286 0.0 0.0 0.00 0.00 0.00 80 1016.2
20260901094539 45 286 0.0 0.0 0.00 0.00 0.00 79 1016.2
20260901093038 45 258 0.0 0.0 0.00 0.00 0.00 78 1016.2
20260901091539 45 251 0.0 0.0 0.00 0.00 0.00 78 1016.2
20260901090012 46 251 0.0 0.0 0.00 0.00 0.00 77 1016.2
20260901084506 46 246 0.0 0.0 0.00 0.00 0.00 77 1016.2
20260901083002 46 246 0.0 0.0 0.00 0.00 0.00 74 1016.2
20260901081603 47 246 0.0 0.0 0.00 0.00 0.00 75 1016.3
20260901080100 45 264 0.0 0.0 0.00 0.00 0.00 76 1016.4
20260901074557 46 285 0.0 0.0 0.00 0.00 0.00 75 1016.5
20260901073054 46 285 0.0 0.0 0.00 0.00 0.00 76 1016.6
20260901071553 46 251 0.0 0.0 0.00 0.00 0.00 76 1016.6